Location: Newark
(40.9833°N, 0.0333°W)
Time: 21:04:50
(UTC+00:00)

Transit 4A - All Passes

Search period start: 28 October 2020 00:00
Search period end: 07 November 2020 00:00
Orbit: 862 x 982 km, 66.8° (Epoch: 27 October)

Date Brightness Start Highest point End Pass type
(mag) Time Alt. Az. Time Alt. Az. Time Alt. Az.
28 Oct - 00:09:40 10° NNW 00:16:07 82° ENE 00:22:24 10° SSE night (unlit)
28 Oct - 01:57:57 10° WNW 02:01:39 16° WSW 02:05:18 10° SW night (unlit)
28 Oct - 13:32:14 10° SE 13:36:19 19° ESE 13:40:30 10° ENE daylight
28 Oct - 15:15:46 10° SW 15:21:58 73° WNW 15:28:24 10° NNE daylight
28 Oct - 17:05:34 10° WNW 17:09:31 17° NW 17:13:33 10° N daylight
28 Oct - 22:33:16 10° N 22:38:27 25° NE 22:43:32 10° E visible
29 Oct - 00:19:03 10° NW 00:25:25 70° WSW 00:31:38 10° SSE night (unlit)
29 Oct - 13:40:13 10° SSE 13:45:21 28° ESE 13:50:38 10° NE daylight
29 Oct - 15:25:20 10° SW 15:31:23 51° NW 15:37:38 10° NNE daylight
29 Oct - 17:16:38 10° WNW 17:19:23 13° NNW 17:22:10 10° N daylight
29 Oct - 22:42:19 10° NNW 22:48:05 33° NE 22:53:43 10° ESE visible
30 Oct - 00:28:33 10° NW 00:34:38 47° WSW 00:40:34 10° S night (unlit)
30 Oct - 13:48:42 10° S 13:54:29 42° ESE 14:00:24 10° NE daylight
30 Oct - 15:35:10 10° WSW 15:40:55 37° NW 15:46:47 10° NNE daylight
30 Oct - 21:07:12 10° N 21:09:30 12° NNE 21:11:46 10° NE visible
30 Oct - 22:51:27 10° NNW 22:57:37 46° NE 23:03:38 10° SE night (unlit)
31 Oct - 00:38:14 10° NW 00:43:47 32° WSW 00:49:11 10° SSW night (unlit)
31 Oct - 13:57:33 10° SSW 14:03:40 62° ESE 14:09:57 10° NE daylight
31 Oct - 15:45:16 10° WSW 15:50:31 27° NW 15:55:53 10° N daylight
31 Oct - 21:15:41 10° N 21:19:23 16° NE 21:23:03 10° ENE visible
31 Oct - 23:00:40 10° NNW 23:07:03 66° ENE 23:13:17 10° SE night (unlit)
01 Nov - 00:48:14 10° WNW 00:52:50 21° WSW 00:57:22 10° SSW night (unlit)
01 Nov - 12:24:32 10° SE 12:27:32 14° E 12:30:34 10° ENE daylight
01 Nov - 14:06:42 10° SSW 14:12:57 89° ESE 14:19:23 10° NNE daylight
01 Nov - 15:55:39 10° W 16:00:13 20° NW 16:04:51 10° N daylight
01 Nov - 21:24:29 10° N 21:29:10 21° NE 21:33:48 10° E visible
01 Nov - 23:09:59 10° NNW 23:16:25 88° WSW 23:22:41 10° SSE night (unlit)
02 Nov - 00:58:53 10° WNW 01:01:49 14° W 01:04:44 10° SW night (unlit)
02 Nov - 12:31:57 10° SSE 12:36:31 22° ESE 12:41:10 10° ENE daylight
02 Nov - 14:16:06 10° SW 14:22:18 64° WNW 14:28:41 10° NNE daylight
02 Nov - 16:06:25 10° WNW 16:10:01 15° NW 16:13:39 10° N daylight
02 Nov - 21:33:28 10° NNW 21:38:52 28° NE 21:44:10 10° ESE visible
02 Nov - 23:19:24 10° NW 23:25:41 61° WSW 23:31:49 10° SSE night (unlit)
03 Nov - 12:40:09 10° S 12:45:35 33° ESE 12:51:09 10° NE daylight
03 Nov - 14:25:47 10° SW 14:31:46 45° NW 14:37:54 10° NNE daylight
03 Nov - 16:17:44 10° NW 16:19:54 12° NNW 16:22:05 10° N daylight
03 Nov - 21:42:33 10° NNW 21:48:28 37° NE 21:54:15 10° ESE visible
03 Nov - 23:28:59 10° NW 23:34:53 41° WSW 23:40:39 10° S night (unlit)
04 Nov - 12:48:47 10° S 12:54:43 48° ESE 13:00:49 10° NE daylight
04 Nov - 14:35:42 10° WSW 14:41:18 33° NW 14:47:02 10° NNE daylight
04 Nov - 20:07:08 10° N 20:10:00 13° NNE 20:12:52 10° ENE visible
04 Nov - 21:51:43 10° NNW 21:57:58 52° NE 22:04:04 10° SE visible
04 Nov - 23:38:45 10° NW 23:43:59 28° WSW 23:49:07 10° SSW night (unlit)
05 Nov - 12:57:44 10° SSW 13:03:57 71° ESE 13:10:19 10° NNE daylight
05 Nov - 14:45:54 10° W 14:50:56 24° NW 14:56:05 10° N daylight
05 Nov - 20:15:47 10° N 20:19:52 17° NE 20:23:54 10° ENE visible
05 Nov - 22:00:58 10° NNW 22:07:23 75° ENE 22:13:38 10° SE visible
05 Nov - 23:48:54 10° WNW 23:53:01 18° WSW 23:57:04 10° SW night (unlit)
06 Nov - 11:23:59 10° SE 11:27:42 17° ESE 11:31:28 10° ENE daylight
06 Nov - 13:06:59 10° SSW 13:13:15 81° WNW 13:19:41 10° NNE daylight
06 Nov - 14:56:25 10° W 15:00:40 18° NW 15:04:59 10° N daylight
06 Nov - 20:24:40 10° N 20:29:38 23° NE 20:34:30 10° E visible
06 Nov - 22:10:19 10° NNW 22:16:43 78° WSW 22:22:56 10° SSE visible
